This is the latest recevied weather packets stored in our database for station/object EA5JUX. If no packets are shown the sender has not sent any weather packets the latest 10 day(s).
| Time | Temp. | Humidity | Pressure | Rain* | Wind** | Luminosity | Snow |
|---|---|---|---|---|---|---|---|
| 1788085035 | 26.67° C | 75% | 1016.9 hPa | 0 mm | - | - | - |
| 1788084735 | 26.67° C | 75% | 1017.1 hPa | 0 mm | - | - | - |
| 1788084434 | 26.11° C | 75% | 1017.2 hPa | 0 mm | - | - | - |
| 1788084150 | 26.11° C | 76% | 1017 hPa | 0 mm | - | - | - |
| 1788083834 | 26.67° C | 76% | 1016.9 hPa | 0 mm | - | - | - |
| 1788083542 | 26.67° C | 76% | 1017 hPa | 0 mm | - | - | - |
| 1788083235 | 26.67° C | 75% | 1017 hPa | 0 mm | - | - | - |
| 1788082934 | 26.67° C | 74% | 1017.2 hPa | 0 mm | - | - | - |
| 1788082635 | 26.11° C | 75% | 1017 hPa | 0 mm | - | - | - |
| 1788082335 | 26.11° C | 75% | 1017 hPa | 0 mm | - | - | - |
| 1788082035 | 26.11° C | 74% | 1017 hPa | 0 mm | - | - | - |
| 1788081735 | 26.11° C | 73% | 1017.1 hPa | 0 mm | - | - | - |
| 1788081435 | 26.11° C | 74% | 1016.9 hPa | 0 mm | - | - | - |
| 1788081135 | 26.11° C | 75% | 1016.7 hPa | 0 mm | - | - | - |
| 1788080834 | 26.11° C | 74% | 1016.9 hPa | 0 mm | - | - | - |
| 1788080553 | 25.56° C | 74% | 1016.8 hPa | 0 mm | - | - | - |
| 1788080234 | 25.56° C | 74% | 1016.9 hPa | 0 mm | - | - | - |
| 1788079934 | 25.56° C | 74% | 1016.9 hPa | 0 mm | - | - | - |
| 1788079634 | 25° C | 74% | 1016.9 hPa | 0 mm | - | - | - |
| 1788079348 | 25° C | 74% | 1016.7 hPa | 0 mm | - | - | - |
| 1788079034 | 25° C | 73% | 1016.8 hPa | 0 mm | - | - | - |
| 1788078735 | 25.56° C | 73% | 1016.8 hPa | 0 mm | - | - | - |
| 1788078434 | 25.56° C | 73% | 1016.7 hPa | 0 mm | - | - | - |
| 1788078134 | 25.56° C | 72% | 1016.8 hPa | 0 mm | - | - | - |
| 1788077855 | 25.56° C | 72% | 1016.5 hPa | 0 mm | - | - | - |
* Rain latest hour (hover to see other rain measurements)
** Current wind speed in m/s (hover to see current wind gust speed)